Weather observations for the past three days for
Carlsbad, McClellan-Palomar Airport
Imperial (Metric)
Date Time (pdt) Wind (mph) Vis. (mi.) Weather Sky Cond. Temperature (ºF) Relative Humidity Wind Chill (°F) Heat Index (°F) Pressure Precipitation (in)
Air Dwpt 6 hour altimeter (in) sea level (mb) 1 hr 3 hr 6 hr
Max. Min.
02 21:53 Calm 10.00 Overcast OVC011 61 55.9 84% 29.9 1012.4
02 20:53 Calm 10.00 Overcast OVC011 61 55.9 84% 29.87 1011.4
02 19:53 Calm 10.00 Overcast OVC011 61 55 81% 29.87 1011.1
02 18:53 W 5 10.00 Overcast OVC011 62.1 55.9 80% 29.86 1011.0
02 17:53 W 6 10.00 Overcast OVC011 62.1 55.9 80% 29.86 1010.8
02 16:53 W 8 10.00 Overcast OVC011 63 57 66 63 81% 29.86 1010.9
02 15:53 W 8 10.00 Overcast OVC011 64 57 78% 29.87 1011.2
02 14:53 W 8 10.00 Overcast OVC012 64 57 78% 29.89 1012.1
02 13:53 W 8 10.00 Mostly Cloudy BKN015 66 57.9 75% 29.9 1012.4
02 12:53 NW 6 G 16 10.00 Mostly Cloudy BKN016 64.9 57.9 78% 29.92 1012.9
02 11:53 SW 12 G 18 10.00 Overcast OVC014 66 57.9 75% 29.93 1013.5
02 10:53 Calm 10.00 Overcast OVC016 64 55.9 64.9 61 75% 29.95 1013.9
02 09:53 Vrbl 3 10.00 Overcast OVC014 63 55.9 78% 29.97 1014.5
02 08:53 NW 5 10.00 Overcast OVC012 62.1 55.9 80% 29.96 1014.5
02 07:53 NW 3 9.00 Overcast OVC012 62.1 57.9 86% 29.96 1014.3
02 06:53 Vrbl 3 6.00 Fog/Mist OVC010 61 57.9 90% 29.94 1013.7
02 05:53 Calm 8.00 Overcast OVC010 62.1 57 84% 29.93 1013.5
02 04:53 SE 5 10.00 Overcast OVC011 62.1 57 63 61 84% 29.92 1013.1
02 03:53 Calm 10.00 Overcast OVC011 62.1 57 84% 29.92 1013.0
02 02:53 Calm 10.00 Overcast OVC011 62.1 57 84% 29.91 1012.8
02 01:53 NE 3 10.00 Overcast OVC012 62.1 57 84% 29.92 1012.8
02 00:53 Vrbl 3 10.00 Overcast OVC012 62.1 57 84% 29.94 1013.6
01 23:53 Vrbl 3 10.00 Overcast OVC012 62.1 57 84% 29.94 1013.7
01 22:53 Calm 10.00 Overcast OVC012 63 57 66 62.1 81% 29.94 1013.7
01 21:53 SW 5 10.00 Overcast OVC012 63 57 81% 29.94 1013.6
01 20:53 SW 3 10.00 Overcast OVC013 63 57 81% 29.93 1013.3
01 19:53 Vrbl 6 10.00 Overcast OVC013 63 57 81% 29.91 1012.8
01 18:53 W 9 10.00 Partly Cloudy SCT016 64 55.9 75% 29.9 1012.3
01 17:53 W 8 10.00 Partly Cloudy SCT016 64.9 55.9 73% 29.89 1011.8
01 16:53 W 9 10.00 Fair CLR 66 55 66.9 63 68% 29.88 1011.8
01 15:53 SW 9 G 21 10.00 Fair CLR 66 55 68% 29.89 1012.1
01 14:53 W 8 10.00 Fair CLR 66 55 68% 29.91 1012.6
01 13:53 W 10 G 17 10.00 Fair CLR 66 54 65% 29.92 1013.0
01 12:53 SW 10 10.00 Fair CLR 66.9 54 63% 29.93 1013.2
01 11:53 W 9 10.00 A Few Clouds FEW025 64.9 53.1 66% 29.95 1013.9
01 10:53 Vrbl 5 10.00 Overcast OVC021 63 53.1 63 60.1 70% 29.96 1014.5
01 09:53 W 3 10.00 Overcast OVC019 62.1 53.1 73% 29.97 1014.8
01 08:53 Vrbl 3 10.00 Overcast OVC018 61 53.1 75% 29.97 1014.6
01 07:53 S 3 10.00 Overcast OVC018 60.1 53.1 78% 29.96 1014.5
01 06:53 E 5 10.00 Overcast OVC018 60.1 53.1 78% 29.95 1013.8
01 05:53 S 3 10.00 Overcast OVC019 60.1 53.1 78% 29.94 1013.5
01 04:53 SE 3 10.00 Overcast OVC019 60.1 53.1 60.1 57.9 78% 29.93 1013.2
01 03:53 Calm 10.00 Overcast OVC021 60.1 53.1 78% 29.92 1013.1
01 02:53 Calm 10.00 Overcast OVC018 59 53.1 81% 29.92 1012.9
01 01:53 E 3 10.00 Overcast OVC021 57.9 53.1 84% 29.92 1013.1
01 00:53 Calm 10.00 Overcast OVC025 59 53.1 81% 29.94 1013.6
30 23:53 SE 3 10.00 Mostly Cloudy FEW015 BKN026 59 53.1 81% 29.94 1013.6
30 22:53 SE 3 10.00 Fair CLR 60.1 54 64 60.1 80% 29.93 1013.4
30 21:53 Calm 10.00 Fair CLR 61 54 78% 29.92 1013.1
30 20:53 Calm 10.00 Fair CLR 61 54 78% 29.91 1012.6
30 19:53 SW 3 10.00 A Few Clouds FEW017 61 54 78% 29.9 1012.2
30 18:53 SW 7 10.00 Partly Cloudy SCT018 62.1 54 75% 29.88 1011.7
30 17:53 SW 5 10.00 Mostly Cloudy BKN019 63 54 73% 29.88 1011.5
30 16:53 SW 8 10.00 Mostly Cloudy BKN019 64 54 66 64 70% 29.88 1011.5
30 15:53 SW 13 10.00 Mostly Cloudy BKN018 64.9 54 68% 29.88 1011.5
30 14:53 W 10 G 21 10.00 Mostly Cloudy BKN018 64.9 54 68% 29.89 1011.9
30 13:53 SW 9 10.00 Partly Cloudy SCT019 66 54 65% 29.88 1011.8
30 12:53 W 10 10.00 Fair CLR 64.9 53.1 66% 29.89 1011.9
30 11:53 W 10 10.00 Fair CLR 64.9 53.1 66% 29.9 1012.3
30 10:53 W 10 10.00 Fair CLR 64 52 64.9 55.9 65% 29.91 1012.5
30 09:53 SW 6 10.00 A Few Clouds FEW026 64 51.1 63% 29.91 1012.6
30 08:53 Calm 10.00 Fair CLR 61 51.1 70% 29.92 1012.9
30 07:53 Calm 10.00 Fair CLR 59 51.1 75% 29.92 1013.0
30 06:53 E 3 10.00 Fair CLR 57 51.1 81% 29.91 1012.8
30 05:53 Calm 10.00 Overcast OVC022 57 51.1 81% 29.91 1012.8
30 04:53 E 3 10.00 Overcast OVC020 55.9 51.1 60.1 55.9 84% 29.92 1013.1
30 03:53 Calm 10.00 Mostly Cloudy BKN016 55.9 52 87% 29.94 1013.5
30 02:53 Calm 10.00 Fair CLR 55.9 52 87% 29.94 1013.7
30 01:53 Calm 10.00 Fair CLR 57 52 83% 29.96 1014.2
30 00:53 E 3 10.00 Fair CLR 57.9 53.1 84% 29.98 1014.9
29 23:53 Calm 10.00 Mostly Cloudy BKN018 60.1 53.1 78% 29.99 1015.3
29 22:53 Calm 10.00 Partly Cloudy SCT018 60.1 54 64.9 60.1 80% 29.99 1015.4
Date Time (pdt) Wind (mph) Vis. (mi.) Weather Sky Cond. Air Dwpt Max. Min. Relative Humidity Wind Chill (°F) Heat Index (°F) altimeter (in) sea level (mb) 1 hr 3 hr 6 hr
6 hour
Temperature (ºF) Pressure Precipitation (in)